When you browse on this site, cookies collect data to enhance your experience and personalize the content and advertising you see.
Visit our Privacy Policy to learn more. By continuing to use the site, you agree to this use of cookies and data.
  • In Hungary
  • List of Countries
  • For 7 days
  • Water Temperature
  • Weather Map
  • News
  • Weather Widgets
  • user-avatar
    Login

    Hourly Weather Kadako

    Today, 19 November, Tuesday

    Time Temperature Precipitation Wind Pressure Humidity
    00:00 +21°C° 0 mm 1 mps 732 mmHg 94%
    01:00 +20°C° 0 mm 1 mps 732 mmHg 95%
    02:00 +19°C° 0 mm 2 mps 732 mmHg 94%
    03:00 +19°C° 0 mm 2 mps 732 mmHg 94%
    04:00 +19°C° 0 mm 2 mps 731 mmHg 93%
    05:00 +19°C° 0 mm 2 mps 731 mmHg 93%
    06:00 +23°C° 0 mm 2 mps 731 mmHg 84%
    07:00 +25°C° 0 mm 2 mps 732 mmHg 75%
    08:00 +28°C° 0 mm 3 mps 732 mmHg 65%
    09:00 +31°C° 0 mm 2 mps 731 mmHg 57%
    10:00 +34°C° 0 mm 2 mps 731 mmHg 48%
    11:00 +37°C° 0 mm 2 mps 731 mmHg 40%
    12:00 +38°C° 0 mm 2 mps 730 mmHg 37%
    13:00 +39°C° 0 mm 3 mps 730 mmHg 35%
    14:00 +41°C° 0 mm 2 mps 729 mmHg 33%
    15:00 +36°C° 1.4 mm 2 mps 729 mmHg 47%
    16:00 +31°C° 1.4 mm 2 mps 729 mmHg 61%
    17:00 +27°C° 1.4 mm 2 mps 728 mmHg 75%
    18:00 +26°C° 2.1 mm 3 mps 730 mmHg 82%
    19:00 +25°C° 2.1 mm 3 mps 731 mmHg 88%
    20:00 +24°C° 2.1 mm 3 mps 732 mmHg 94%
    21:00 +22°C° 2.6 mm 3 mps 733 mmHg 94%
    22:00 +22°C° 2.6 mm 3 mps 733 mmHg 93%
    23:00 +22°C° 2.6 mm 3 mps 734 mmHg 92%

    Tomorrow, 20 November, Wednesday

    Time Temperature Precipitation Wind Pressure Humidity
    00:00 +21°C° 0.1 mm 3 mps 733 mmHg 92%
    01:00 +21°C° 0.1 mm 3 mps 733 mmHg 92%
    02:00 +20°C° 0.1 mm 2 mps 733 mmHg 91%
    03:00 +20°C° 0 mm 2 mps 733 mmHg 91%
    04:00 +20°C° 0 mm 2 mps 733 mmHg 91%
    05:00 +20°C° 0 mm 2 mps 733 mmHg 90%
    06:00 +20°C° 0 mm 2 mps 734 mmHg 89%
    07:00 +20°C° 0 mm 2 mps 734 mmHg 87%
    08:00 +20°C° 0 mm 2 mps 734 mmHg 86%
    09:00 +21°C° 0 mm 2 mps 734 mmHg 82%
    10:00 +23°C° 0 mm 2 mps 734 mmHg 78%
    11:00 +24°C° 0 mm 2 mps 734 mmHg 74%
    12:00 +24°C° 0 mm 2 mps 734 mmHg 72%
    13:00 +25°C° 0 mm 2 mps 733 mmHg 70%
    14:00 +26°C° 0 mm 2 mps 733 mmHg 68%
    15:00 +25°C° 0 mm 2 mps 732 mmHg 71%
    16:00 +25°C° 0 mm 2 mps 731 mmHg 73%
    17:00 +24°C° 0 mm 2 mps 731 mmHg 76%
    18:00 +23°C° 0 mm 2 mps 731 mmHg 79%
    19:00 +23°C° 0 mm 2 mps 732 mmHg 82%
    20:00 +21°C° 0 mm 2 mps 732 mmHg 86%
    21:00 +20°C° 0.6 mm 2 mps 732 mmHg 88%
    22:00 +20°C° 0.6 mm 2 mps 733 mmHg 91%
    23:00 +21°C° 0.6 mm 1 mps 733 mmHg 94%

    Day after tomorrow, 21 November, Thursday

    Time Temperature Precipitation Wind Pressure Humidity
    00:00 +20°C° 1.1 mm 1 mps 732 mmHg 94%
    01:00 +20°C° 1.1 mm 1 mps 732 mmHg 95%
    02:00 +20°C° 1.1 mm 1 mps 731 mmHg 96%
    03:00 +20°C° 2.5 mm 1 mps 731 mmHg 96%
    04:00 +20°C° 2.5 mm 1 mps 731 mmHg 96%
    05:00 +20°C° 2.5 mm 1 mps 731 mmHg 97%
    06:00 +21°C° 0 mm 1 mps 731 mmHg 96%
    07:00 +21°C° 0 mm 1 mps 731 mmHg 94%
    08:00 +22°C° 0 mm 1 mps 732 mmHg 93%
    09:00 +23°C° 0 mm 1 mps 731 mmHg 88%
    10:00 +24°C° 0 mm 1 mps 731 mmHg 84%
    11:00 +26°C° 0 mm 1 mps 731 mmHg 79%
    12:00 +27°C° 0 mm 2 mps 730 mmHg 74%
    13:00 +28°C° 0 mm 2 mps 730 mmHg 68%
    14:00 +30°C° 0 mm 2 mps 729 mmHg 63%
    15:00 +29°C° 0 mm 2 mps 729 mmHg 66%
    16:00 +28°C° 0 mm 2 mps 729 mmHg 70%
    17:00 +28°C° 0 mm 2 mps 729 mmHg 73%
    18:00 +26°C° 0 mm 2 mps 729 mmHg 80%
    19:00 +25°C° 0 mm 2 mps 730 mmHg 87%
    20:00 +23°C° 0 mm 1 mps 730 mmHg 94%
    21:00 +23°C° 0 mm 1 mps 731 mmHg 93%
    22:00 +23°C° 0 mm 1 mps 731 mmHg 92%
    23:00 +23°C° 0 mm 1 mps 732 mmHg 92%

    22 November, Friday

    Time Temperature Precipitation Wind Pressure Humidity
    00:00 +23°C° 0 mm 1 mps 732 mmHg 92%
    01:00 +21°C° 0 mm 0 mps 731 mmHg 92%
    02:00 +21°C° 0 mm 0 mps 731 mmHg 92%
    03:00 +21°C° 0 mm 0 mps 731 mmHg 92%
    04:00 +23°C° 0 mm 1 mps 731 mmHg 92%
    05:00 +23°C° 0 mm 1 mps 731 mmHg 92%
    06:00 +24°C° 0 mm 1 mps 732 mmHg 87%
    07:00 +25°C° 0 mm 1 mps 732 mmHg 82%
    08:00 +25°C° 0 mm 1 mps 733 mmHg 77%
    09:00 +27°C° 0 mm 1 mps 733 mmHg 72%
    10:00 +28°C° 0 mm 1 mps 732 mmHg 67%
    11:00 +30°C° 0 mm 1 mps 732 mmHg 63%
    12:00 +29°C° 0 mm 2 mps 732 mmHg 64%
    13:00 +29°C° 0 mm 2 mps 731 mmHg 66%
    14:00 +28°C° 0 mm 3 mps 731 mmHg 68%
    15:00 +28°C° 0 mm 2 mps 731 mmHg 70%
    16:00 +27°C° 0 mm 2 mps 731 mmHg 73%
    17:00 +27°C° 0 mm 2 mps 731 mmHg 75%
    18:00 +26°C° 0.2 mm 2 mps 731 mmHg 80%
    19:00 +25°C° 0.2 mm 2 mps 732 mmHg 84%
    20:00 +23°C° 0.2 mm 2 mps 732 mmHg 89%
    21:00 +23°C° 0.1 mm 2 mps 732 mmHg 90%
    22:00 +23°C° 0.1 mm 1 mps 732 mmHg 90%
    23:00 +23°C° 0.1 mm 1 mps 733 mmHg 91%

    23 November, Saturday

    Time Temperature Precipitation Wind Pressure Humidity
    00:00 +23°C° 0 mm 1 mps 732 mmHg 92%
    01:00 +23°C° 0 mm 1 mps 732 mmHg 93%
    02:00 +22°C° 0 mm 1 mps 731 mmHg 94%
    03:00 +23°C° 0 mm 1 mps 732 mmHg 94%
    04:00 +23°C° 0 mm 1 mps 732 mmHg 93%
    05:00 +23°C° 0 mm 2 mps 732 mmHg 93%
    06:00 +24°C° 0 mm 2 mps 732 mmHg 89%
    07:00 +25°C° 0 mm 2 mps 732 mmHg 84%
    08:00 +25°C° 0 mm 2 mps 732 mmHg 80%
    09:00 +27°C° 0 mm 3 mps 732 mmHg 73%
    10:00 +29°C° 0 mm 3 mps 732 mmHg 65%
    11:00 +32°C° 0 mm 4 mps 731 mmHg 58%
    12:00 +33°C° 0 mm 4 mps 730 mmHg 56%
    13:00 +34°C° 0 mm 4 mps 730 mmHg 54%
    14:00 +35°C° 0 mm 5 mps 729 mmHg 52%
    15:00 +34°C° 0 mm 5 mps 729 mmHg 55%
    16:00 +34°C° 0 mm 5 mps 728 mmHg 58%
    17:00 +33°C° 0 mm 5 mps 728 mmHg 60%
    18:00 +32°C° 0.2 mm 4 mps 728 mmHg 67%
    19:00 +29°C° 0.2 mm 3 mps 729 mmHg 74%
    20:00 +27°C° 0.2 mm 3 mps 729 mmHg 80%
    21:00 +26°C° 0.3 mm 2 mps 730 mmHg 85%
    22:00 +25°C° 0.3 mm 1 mps 730 mmHg 90%
    23:00 +24°C° 0.3 mm 1 mps 730 mmHg 95%

    24 November, Sunday

    Time Temperature Precipitation Wind Pressure Humidity
    00:00 +24°C° 1 mm 1 mps 730 mmHg 96%
    01:00 +24°C° 1 mm 1 mps 730 mmHg 97%
    02:00 +24°C° 1 mm 1 mps 730 mmHg 98%
    03:00 +24°C° 0.2 mm 1 mps 730 mmHg 97%
    04:00 +24°C° 0.2 mm 1 mps 731 mmHg 97%
    05:00 +24°C° 0.2 mm 1 mps 731 mmHg 96%
    06:00 +23°C° 0 mm 0 mps 731 mmHg 94%
    07:00 +24°C° 0 mm 0 mps 732 mmHg 91%
    08:00 +24°C° 0 mm 0 mps 732 mmHg 88%
    09:00 +26°C° 0 mm 0 mps 732 mmHg 81%
    10:00 +30°C° 0 mm 1 mps 732 mmHg 73%
    11:00 +32°C° 0 mm 1 mps 731 mmHg 66%
    12:00 +33°C° 0 mm 1 mps 731 mmHg 61%
    13:00 +35°C° 0 mm 2 mps 730 mmHg 57%
    14:00 +36°C° 0 mm 2 mps 729 mmHg 52%
    15:00 +34°C° 0.6 mm 2 mps 729 mmHg 59%
    16:00 +33°C° 0.6 mm 3 mps 729 mmHg 65%
    17:00 +30°C° 0.6 mm 3 mps 728 mmHg 72%
    18:00 +29°C° 3.3 mm 2 mps 729 mmHg 79%
    19:00 +27°C° 3.3 mm 2 mps 730 mmHg 86%
    20:00 +25°C° 3.3 mm 1 mps 730 mmHg 92%
    21:00 +24°C° 0 mm 1 mps 730 mmHg 94%
    22:00 +24°C° 0 mm 1 mps 730 mmHg 95%
    23:00 +22°C° 0 mm 0 mps 731 mmHg 96%
    Show more